Weather History for Nanaimo, BC

Change the Weather History Date:

Tuesday, February 12, 2013

  Actual Average Record
Temperature  
Mean Temperature 37 °F -  
Max Temperature 53 °F 44 °F 53 °F (2004)
Min Temperature 21 °F 31 °F -2 °F (2014)
Degree Days  
Heating Degree Days 28    
Moisture  
Dew Point 38 °F    
Average Humidity 83    
Maximum Humidity 100    
Minimum Humidity 58    
Precipitation  
Precipitation 0.04 in - - ()
Sea Level Pressure  
Sea Level Pressure 30.12 in    
Wind  
Wind Speed 4 mph ()    
Max Wind Speed 12 mph    
Max Gust Speed 21 mph    
Visibility 18.3 miles    
Events Rain    
Averages and records for this station are not official NWS values.
T = Trace of Precipitation, MM = Missing Value Source: Averaged Metar Reports

Daily Weather History Graph

Daily Weather History Graph

Search for Another Location

Airport:

Trip Planner

Search our weather history database for the weather conditions in past years. The results will help you decide how hot, cold, wet, or windy it might be!

Date:

Astronomy

Feb. 12, 2013 Rise Set
Actual Time 7:28 AM PST 5:31 PM PST
Civil Twilight 6:55 AM PST 6:04 PM PST
Nautical Twilight 6:18 AM PST 6:41 PM PST
Astronomical Twilight 5:41 AM PST 7:18 PM PST
Moon 8:09 AM PST (2/12) 9:00 PM PST (2/12)
Length of Visible Light 11h 08m
Length of Day
10h 03m
Waxing Crescent, 8% of the Moon is Illuminated
Feb 12
Waxing Crescent
Feb 17
First Quarter
Feb 25
Full
Mar 4
Last Quarter
Mar 11
New

Hourly Weather History & Observations

Time (PST) Temp. Windchill Dew Point Humidity Pressure Visibility Wind Dir Wind Speed Gust Speed Precip Events Conditions
4:00 AM 28 °F - 27 °F 95% 29.47 in - ENE 11.5 mph - -  
6:00 AM 39.2 °F - 37.4 °F 93% 30.34 in 20.0 mi Calm Calm - N/A   Overcast
7:00 AM 39.2 °F - 37.4 °F 93% 30.35 in 20.0 mi West 2.3 mph - N/A   Overcast
8:00 AM 39.2 °F - 39.2 °F 100% 30.35 in 15.0 mi South 2.3 mph - N/A Rain Light Rain
9:00 AM 41.0 °F - 39.2 °F 93% 30.37 in 15.0 mi Calm Calm - N/A Rain Light Rain
10:00 AM 31 °F - 28 °F 84% 29.46 in - NE 4.6 mph - -  
10:00 AM 42.8 °F - 41.0 °F 93% 30.36 in 15.0 mi Calm Calm - N/A Rain Light Rain
10:11 AM - - - N/A% - 15.0 mi Calm Calm - N/A   Overcast
10:47 AM - - - N/A% - 15.0 mi South 3.5 mph - N/A Rain Light Rain
11:24 AM - - - N/A% - 15.0 mi Calm Calm - N/A   Mostly Cloudy
12:00 PM 46.4 °F 45.2 °F 42.8 °F 87% 30.31 in 20.0 mi South 3.5 mph - N/A   Mostly Cloudy
1:00 PM 50.0 °F - 41.0 °F 71% 30.28 in 20.0 mi SE 9.2 mph - N/A   Mostly Cloudy
2:00 PM 51.8 °F - 42.8 °F 71% 30.28 in 20.0 mi SE 4.6 mph - N/A   Overcast
3:00 PM 51.8 °F - 42.8 °F 71% 30.26 in 20.0 mi SE 10.4 mph 18.4 mph N/A   Mostly Cloudy
4:00 PM 28 °F - 27 °F 94% 29.55 in - West 3.5 mph - -  
4:00 PM 53.6 °F - 42.8 °F 67% 30.25 in 20.0 mi SSE 9.2 mph 17.3 mph N/A   Mostly Cloudy
5:00 PM 51.8 °F - 39.2 °F 62% 30.22 in 20.0 mi South 11.5 mph 18.4 mph N/A   Mostly Cloudy
6:00 PM 51.8 °F - 37.4 °F 58% 30.20 in 20.0 mi SSW 10.4 mph 20.7 mph N/A   Mostly Cloudy
7:00 PM 48.2 °F - 41.0 °F 76% 30.21 in 20.0 mi NNW 3.5 mph - N/A   Mostly Cloudy
8:00 PM 46.4 °F - 41.0 °F 81% 30.20 in 20.0 mi Calm Calm - N/A   Mostly Cloudy
9:00 PM 44.6 °F - 41.0 °F 87% 30.21 in 20.0 mi Calm Calm - N/A   Mostly Cloudy
10:00 PM 28 °F - 27 °F 95% 29.57 in - WSW 8.1 mph - -